This demonstration page uses our WeatherBlox Daily Observations layout. Learn more.

Left ArrowRight Arrow

Hourly Observations for May 29, 2022

Temp ( °F °C ) Dew Point ( °F °C ) Humidity (%) Winds ( mph kmh ) Pressure ( in mb ) Visibility ( mi km ) Precip ( " mm )
12:54 am 00:54 Clear 75 23.9 62 16.7 64 64 S 16 26 29.45 997 10 16 0.00 0.00
1:54 am 01:54 Clear 74 23.3 62 16.7 67 67 SSE 14 22 29.41 996 10 16 0.00 0.00
2:54 am 02:54 Clear 73 22.8 62 16.7 69 69 SSE 15 24 29.40 996 10 16 0.00 0.00
3:54 am 03:54 Clear 73 22.8 62 16.7 69 69 S 14 22 29.37 995 10 16 0.00 0.00
4:54 am 04:54 Clear 72 22.2 62 16.7 71 71 SSE 10 17 29.36 994 10 16 0.00 0.00
5:54 am 05:54 Clear 70 21.1 61 16.1 73 73 SSE 9 15 29.36 994 10 16 0.00 0.00
6:54 am 06:54 Sunny 71 21.7 62 16.7 73 73 SSE 8 13 29.37 995 10 16 0.00 0.00
7:54 am 07:54 Sunny 73 22.8 62 16.7 69 69 SSE 12 19 29.36 994 10 16 0.00 0.00
8:54 am 08:54 Sunny 78 25.6 64 17.8 62 62 S 18 30 29.35 994 10 16 0.00 0.00
9:54 am 09:54 Sunny 80 26.7 64 17.8 58 58 S 23 37 29.34 993 10 16 0.00 0.00
10:54 am 10:54 Sunny 81 27.2 65 18.3 58 58 S 17 28 29.33 993 10 16 0.00 0.00
11:54 am 11:54 Sunny 84 28.9 65 18.3 53 53 S 25 41 29.32 993 10 16 0.00 0.00
12:54 pm 12:54 Sunny 84 28.9 64 17.8 51 51 S 26 43 29.32 993 10 16 0.00 0.00
1:54 pm 13:54 Sunny 86 30 65 18.3 49 49 S 23 37 29.32 993 10 16 0.00 0.00
2:54 pm 14:54 Sunny 87 30.6 63 17.2 45 45 S 24 39 29.31 993 10 16 0.00 0.00
3:54 pm 15:54 Sunny 88 31.1 65 18.3 46 46 S 22 35 29.31 993 10 16 0.00 0.00
4:54 pm 16:54 Sunny 87 30.6 68 20 53 53 S 24 39 29.29 992 10 16 0.00 0.00
5:54 pm 17:54 Sunny 85 29.4 68 20 57 57 S 20 31 29.31 993 10 16 0.00 0.00
6:54 pm 18:54 Sunny 84 28.9 69 20.6 61 61 S 18 30 29.32 993 10 16 0.00 0.00
7:54 pm 19:54 Sunny 83 28.3 68 20 61 61 S 14 22 29.34 993 10 16 0.00 0.00
8:54 pm 20:54 Clear 83 28.3 68 20 61 61 S 20 31 29.34 994 10 16 0.00 0.00
9:54 pm 21:54 Clear 81 27.2 69 20.6 67 67 S 21 33 29.37 995 10 16 0.00 0.00
10:54 pm 22:54 Clear 80 26.7 67 19.4 64 64 SSE 25 41 29.39 995 10 16 0.00 0.00
11:54 pm 23:54 Clear 79 26.1 66 18.9 65 65 S 21 33 29.39 995 10 16 0.00 0.00

Powered by AerisWeather